2023/01/02 00:00:00,19.2, 1.7
2023/01/02 00:10:00,19.2, 1.7
2023/01/02 00:20:00,19.3, 1.7
2023/01/02 00:30:00,19.3, 0.9
2023/01/02 00:40:00,19.4, 1.5
2023/01/02 00:50:00,19.3, 1.0
2023/01/02 01:00:00,19.2, 1.4
2023/01/02 01:10:00,19.3, 1.5
2023/01/02 01:20:00,19.1, 1.4
2023/01/02 01:30:00,19.1, 1.5
2023/01/02 01:40:00,19.1, 1.4
2023/01/02 01:50:00,19.1, 1.5
2023/01/02 02:00:00,19.0, 1.4
2023/01/02 02:10:00,19.0, 1.1
2023/01/02 02:20:00,19.0, 1.3
2023/01/02 02:30:00,19.0, 1.4
2023/01/02 02:40:00,19.0, 1.3
2023/01/02 02:50:00,19.0, 1.4
2023/01/02 03:00:00,18.9, 1.2
2023/01/02 03:10:00,18.9, 1.3
2023/01/02 03:20:00,18.9, 1.5
2023/01/02 03:30:00,19.0, 1.3
2023/01/02 03:40:00,18.9, 1.5
2023/01/02 03:50:00,18.9, 1.1
2023/01/02 04:00:00,19.0, 1.3
2023/01/02 04:10:00,19.0, 1.4
2023/01/02 04:20:00,19.0, 1.5
2023/01/02 04:30:00,18.9, 1.6
2023/01/02 04:40:00,18.9, 1.9
2023/01/02 04:50:00,18.8, 2.2
2023/01/02 05:00:00,18.9, 2.0
2023/01/02 05:10:00,19.1, 1.6
2023/01/02 05:20:00,19.2, 1.4
2023/01/02 05:30:00,19.3, 1.2
2023/01/02 05:40:00,19.3, 1.1
2023/01/02 05:50:00,19.3, 1.1
2023/01/02 06:00:00,19.5, 1.0
2023/01/02 06:10:00,19.9, 0.8
2023/01/02 06:20:00,19.9, 0.8
2023/01/02 06:30:00,20.6, 0.7
2023/01/02 06:40:00,21.1, 0.8
2023/01/02 06:50:00,20.9, 0.7
2023/01/02 07:00:00,21.2, 0.3
2023/01/02 07:10:00,21.6, 0.8
2023/01/02 07:20:00,21.8, 0.6
2023/01/02 07:30:00,21.9, 0.8
2023/01/02 07:40:00,21.9, 0.7
2023/01/02 07:50:00,21.8, 0.8
2023/01/02 08:00:00,21.9, 0.6
2023/01/02 08:10:00,22.2, 0.9
2023/01/02 08:20:00,22.3, 0.6
2023/01/02 08:30:00,22.2, 1.0
2023/01/02 08:40:00,22.1, 1.5
2023/01/02 08:50:00,22.2, 1.4
2023/01/02 09:00:00,22.2, 1.5
2023/01/02 09:10:00,22.1, 1.6
2023/01/02 09:20:00,22.2, 1.9
2023/01/02 09:30:00,22.2, 2.6
2023/01/02 09:40:00,22.1, 3.2
2023/01/02 09:50:00,22.0, 2.7
2023/01/02 10:00:00,22.0, 2.2
2023/01/02 10:10:00,22.1, 2.5
2023/01/02 10:20:00,22.2, 3.3
2023/01/02 10:30:00,22.0, 2.9
2023/01/02 10:40:00,21.9, 2.2
2023/01/02 10:50:00,22.0, 2.2
2023/01/02 11:00:00,22.1, 3.2
2023/01/02 11:10:00,21.9, 2.6
2023/01/02 11:20:00,22.0, 3.8
2023/01/02 11:30:00,21.9, 2.8
2023/01/02 11:40:00,22.1, 1.9
2023/01/02 11:50:00,22.5, 2.9
2023/01/02 12:00:00,22.3, 2.3
2023/01/02 12:10:00,22.3, 2.5
2023/01/02 12:20:00,22.3, 3.0
2023/01/02 12:30:00,22.3, 2.7
2023/01/02 12:40:00,22.1, 1.8
2023/01/02 12:50:00,22.4, 1.5
2023/01/02 13:00:00,22.5, 2.6
2023/01/02 13:10:00,22.4, 2.4
2023/01/02 13:20:00,22.4, 2.0
2023/01/02 13:30:00,22.6, 4.7
2023/01/02 13:40:00,22.5, 5.5
2023/01/02 13:50:00,22.5, 5.8
2023/01/02 14:00:00,22.4, 6.2
2023/01/02 14:10:00,22.3, 5.2
2023/01/02 14:20:00,22.1, 4.8
2023/01/02 14:30:00,22.1, 9.7
2023/01/02 14:40:00,22.1,11.8
2023/01/02 14:50:00,22.1,12.2
2023/01/02 15:00:00,21.9, 8.0
2023/01/02 15:10:00,21.8, 5.4
2023/01/02 15:20:00,21.9, 4.1
2023/01/02 15:30:00,21.8, 3.6
2023/01/02 15:40:00,21.8, 3.2
2023/01/02 15:50:00,21.7, 2.7
2023/01/02 16:00:00,21.7, 2.8
2023/01/02 16:10:00,21.8, 3.3
2023/01/02 16:20:00,21.7, 3.2
2023/01/02 16:30:00,21.6, 2.4
2023/01/02 16:40:00,21.7, 2.2
2023/01/02 16:50:00,21.6, 2.0
2023/01/02 17:00:00,21.8, 1.5
2023/01/02 17:10:00,22.5, 1.3
2023/01/02 17:20:00,22.5, 1.1
2023/01/02 17:30:00,22.4, 1.1
2023/01/02 17:40:00,22.4, 1.0
2023/01/02 17:50:00,22.5, 0.9
2023/01/02 18:00:00,22.6, 0.6
2023/01/02 18:10:00,22.6, 0.9
2023/01/02 18:20:00,22.6, 0.9
2023/01/02 18:30:00,22.5, 1.0
2023/01/02 18:40:00,22.5, 1.3
2023/01/02 18:50:00,22.7, 0.9
2023/01/02 19:00:00,22.7, 1.0
2023/01/02 19:10:00,23.2, 1.0
2023/01/02 19:20:00,23.8, 0.6
2023/01/02 19:30:00,24.4, 0.7
2023/01/02 19:40:00,25.1, 0.6
2023/01/02 19:50:00,25.6, 0.7
2023/01/02 20:00:00,26.3, 0.7
2023/01/02 20:10:00,27.1, 0.7
2023/01/02 20:20:00,27.2, 0.7
2023/01/02 20:30:00,27.0, 0.8
2023/01/02 20:40:00,27.0, 0.6
2023/01/02 20:50:00,27.0, 0.8
2023/01/02 21:00:00,27.3, 0.7
2023/01/02 21:10:00,27.5, 0.6
2023/01/02 21:20:00,27.7, 0.8
2023/01/02 21:30:00,27.8, 0.7
2023/01/02 21:40:00,27.8, 0.6
2023/01/02 21:50:00,27.8, 0.7
2023/01/02 22:00:00,27.8, 0.7
2023/01/02 22:10:00,27.8, 0.7
2023/01/02 22:20:00,27.8, 0.6
2023/01/02 22:30:00,27.9, 0.7
2023/01/02 22:40:00,28.4, 0.7
2023/01/02 22:50:00,29.0, 0.9
2023/01/02 23:00:00,29.4, 0.9
2023/01/02 23:10:00,29.9, 0.6
2023/01/02 23:20:00,29.9, 0.6
2023/01/02 23:30:00,29.9, 0.6
2023/01/02 23:40:00,29.8, 0.6
2023/01/02 23:50:00,30.0, 0.8
